Regional Weather Roundup
Issued by NWS

Home | Current Version | Previous Version | Text Only | Print | Product List | Glossary Off
Versions: 1 2 3 4 5 6 7 8 9 10 11 12 13 14 15 16 17 18 19 20 21 22 23 24 25 26 27 28

000
ASUS45 KBOI 100010
RWRID

IDAHO REGIONAL WEATHER ROUNDUP
NATIONAL WEATHER SERVICE BOISE ID
500 PM MST FRI DEC 09 2016

NOTE: "FAIR" INDICATES FEW OR NO CLOUDS BELOW 12000 FEET
WITH NO SIGNIFICANT WEATHER AND/OR OBSTRUCTIONS TO VISIBILITY

IDZ012-014-100100-
SOUTHWEST IDAHO


CITY           SKY/WX    TMP DP  RH WIND       PRES   REMARKS
BOISE          FRZ RAIN  31  29  92 E5        30.05R FOG     WCI  26
CALDWELL       FLURRIES  29  27  92 W6        30.08S WCI  23
MOUNTAIN HOME  CLOUDY    34  34 100 E7        30.02S WCI  28
$$

IDZ016-017-100100-
SOUTHCENTRAL IDAHO


CITY           SKY/WX    TMP DP  RH WIND       PRES   REMARKS
BURLEY         LGT RAIN  37  35  92 W6        30.05S FOG     WCI  32
JEROME         LGT RAIN  36  35  96 E9        30.03F WCI  29
TWIN FALLS     CLOUDY    41  34  76 S6        30.03F
$$

IDZ019>023-100100-
SOUTHEAST IDAHO


CITY           SKY/WX    TMP DP  RH WIND       PRES   REMARKS
IDAHO FALLS    LGT SNOW  23  20  88 VRB3      30.07S VSB 1
POCATELLO      FRZ RAIN  32  31  96 CALM      30.07F FOG
REXBURG        LGT SNOW  24  22  91 CALM      30.06F FOG
$$

IDZ006-010-011-018-031-032-100100-
CENTRAL IDAHO MOUNTAINS


CITY           SKY/WX    TMP DP  RH WIND       PRES   REMARKS
MCCALL         LGT SNOW  29  26  89 W3        29.94F VSB 1
STANLEY          N/A     33  32  96 SE6       29.97S WCI  28
SALMON         CLOUDY    18  16  93 CALM      30.05F
CHALLIS        LGT SNOW  18  17  96 CALM      29.99S FOG
$$

IDZ002-004-006-007-026-100100-
NORTHERN IDAHO


CITY           SKY/WX    TMP DP  RH WIND       PRES   REMARKS
LEWISTON       LGT SNOW  28  25  88 CALM      30.04S FOG
LOWELL           N/A     28  24  85 N3        30.09F
COEUR D`ALENE  FLURRIES  18  14  84 N14       30.01F WCI   4
MULLAN PASS    FOG       16  14  92 S6        29.83F VSB 3/4 WCI   7
$$




USA.gov is the U.S. government's official web portal to all federal, state and local government web resources and services.